Location: Gombori
(14.9797°N, 2.9419°W)
Time: 05:44:51
(UTC+00:00)

Meteor 2-13 Rocket - Pass Details

Date: 01 December 2021
Orbit: 936 x 957 km, 82.5° (Epoch: 19 January)

Event Time Altitude Azimuth Distance (km) Brightness Sun altitude
Rises 03:56:49 0° 148° (SSE) 3,623 8.1 -33.9°
Reaches altitude 10° 04:00:12 10° 129° (SE) 2,676 7.5 -33.1°
Maximum altitude 04:04:04 17° 89° (E) 2,179 7.0 -32.2°
Drops below altitude 10° 04:07:54 10° 50° (NE) 2,670 7.1 -31.3°
Sets 04:11:15 0° 32° (NNE) 3,611 7.7 -30.6°
